Regional Weather Roundup
Issued by NWS

Home | Current Version | Previous Version | Text Only | Print | Product List | Glossary Off
Versions: 1 2 3 4 5 6 7 8 9 10 11 12 13 14 15 16 17 18 19 20 21 22 23 24 25 26 27 28 29 30 31 32 33 34 35 36 37 38 39 40 41 42 43 44 45 46 47 48 49 50

000
ASUS43 KMKX 190120
RWRWI

WISCONSIN REGIONAL WEATHER ROUNDUP
NATIONAL WEATHER SERVICE MILWAUKEE/SULLIVAN WI
700 PM CST SAT NOV 18 2017

NOTE: "FAIR" INDICATES FEW OR NO CLOUDS BELOW 12,000 FEET WITH NO
SIGNIFICANT WEATHER AND/OR OBSTRUCTIONS TO VISIBILITY.

WIZ001-002-006>008-014>016-023>028-190200-
NORTHWEST WISCONSIN

CITY           SKY/WX    TMP DP  RH WIND       PRES   REMARKS
SUPERIOR ARPT  CLOUDY    23  12  62 N15G21    29.94S WCI  10
ASHLAND        CLOUDY    26  17  68 NW12      29.89R WCI  16
HAYWARD        CLOUDY    26  14  60 VRB7G16   29.88R WCI  18
SIREN          CLOUDY    25  14  63 NW14      29.94R WCI  13
CUMBERLAND     CLOUDY    27  16  63 NW14      29.90R WCI  15
RICE LAKE      CLOUDY    27  17  64 NW10G21   29.92R WCI  18
CHETEK         CLOUDY    28  18  66 NW7G22    29.90R WCI  21
LADYSMITH      CLOUDY    28  18  66 NW16G25   29.88R WCI  16
EAU CLAIRE     PTCLDY    29  17  61 NW16      29.89R WCI  17
MENOMONIE      CLOUDY    30  19  62 W16G24    29.91R WCI  18
NEW RICHMOND   CLOUDY    27  17  66 NW15      29.95R WCI  15
OSCEOLA        CLOUDY    27  15  62 NW15G21   29.99R WCI  15
$$

WIZ003>005-009-010-017-018-190200-
NORTH CENTRAL WISCONSIN

CITY           SKY/WX    TMP DP  RH WIND       PRES   REMARKS
MANITOWISH WTR CLOUDY    25  25  99 NW12G20   29.78R WCI  14
ARBOR VITAE    MOCLDY    27  24  88 NW15G21   29.76S WCI  15
WOODRUFF       MOCLDY    27  24  88 NW15G21   29.76S WCI  15
RHINELANDER    CLOUDY    27  24  89 NW8G18    29.75R WCI  19
EAGLE RIVER    CLOUDY    26  24  89 N21G28    29.74R WCI  12
LAND O LAKES   CLOUDY    27  23  86 NW15G23   29.76R WCI  15
PHILLIPS       CLOUDY    25  19  77 NW14      29.82R WCI  13
TOMAHAWK       CLOUDY    27  21  79 NW12G22   29.78R WCI  16
MEDFORD        CLOUDY    28  20  72 NW13G24   29.78R WCI  18
MERRILL        CLOUDY    29  22  75 NW17G25   29.78R WCI  17
$$

WIZ029-030-035-036-043>047-190200-
CENTRAL WISCONSIN

CITY           SKY/WX    TMP DP  RH WIND       PRES   REMARKS
WAUSAU         CLOUDY    31  24  75 NW15G22   29.75R WCI  20
MOSINEE        CLOUDY    30  25  80 NW15G21   29.77R WCI  19
MARSHFIELD     FLURRIES  31  21  66 NW24G31   29.77R WCI  17
STEVENS POINT  CLOUDY    31  23  73 NW13G24   29.76R WCI  21
WAUPACA        CLOUDY    37  27  67 NW15G21   29.75R WCI  28
WAUTOMA        CLOUDY    35  25  66 NW14G24   29.76R WCI  26
WISC RAPIDS    CLOUDY    34  23  64 NW18      29.78R WCI  23
CAMP DOUGLAS   MOCLDY   N/A N/A N/A NW16G24   29.82R
$$

WIZ011>013-019>022-031-037>040-048>050-190200-
NORTHEAST WISCONSIN

CITY           SKY/WX    TMP DP  RH WIND       PRES   REMARKS
ANTIGO         CLOUDY    28  24  85 NW20G26   29.72R WCI  15
SHAWANO        CLOUDY    36  28  72 NW10G20   29.73R WCI  28
OCONTO         CLOUDY    34  27  74 N6        29.70R WCI  29
STURGEON BAY   CLOUDY    35  27  72 N15       29.68R WCI  25
GREEN BAY      CLOUDY    36  30  79 N12G20    29.71R WCI  28
MANITOWOC      CLOUDY    36  28  73 NW13      29.69  WCI  27
APPLETON       CLOUDY    36  25  64 NW12G23   29.70R WCI  27
CLINTONVILLE   CLOUDY    36  25  64 NW12G20   29.73R WCI  27
OSHKOSH        CLOUDY    36  27  69 NW15G23   29.70R WCI  27
$$

WIZ032>034-041-042-053>061-190200-
SOUTHWEST WISCONSIN

CITY           SKY/WX    TMP DP  RH WIND       PRES   REMARKS
LA CROSSE      PTCLDY    34  21  59 NW17G31   29.87R WCI  23
SPARTA         CLOUDY    33  24  69 NW10G18   29.85R WCI  25
VIROQUA        CLOUDY    33  26  76 NW24G31   29.82R WCI  20
BOSCOBEL       CLOUDY    38  26  62 NW12G18   29.83R WCI  30
PRAIRIE DU CHI PTCLDY    35  22  61 NW18G25   29.86R WCI  24
PLATTEVILLE    PTCLDY    36  30  79 NW18G25   29.81R WCI  25
$$

WIZ056-057-062-063-064-067-068-190200-
SOUTH CENTRAL WISCONSIN

CITY           SKY/WX    TMP DP  RH WIND       PRES   REMARKS
REEDSBURG      CLOUDY    35  25  67 NW15G25   29.78R WCI  25
BARABOO/DELLS  CLOUDY    36  26  67 NW16G22   29.76R WCI  26
LONE ROCK      CLOUDY    38  28  67 NW12      29.80R WCI  30
MINERAL POINT  PTCLDY    37  30  75 NW13      29.79R WCI  29
MADISON        CLOUDY    36  29  75 NW8       29.74R WCI  30
MIDDLETON      MOCLDY    37  30  74 NW10      29.76R WCI  30
WATERTOWN      CLOUDY    36  30  80 NW12G18   29.72R WCI  27
MONROE         MOCLDY    34  30  86 W8        29.76R WCI  27
JANESVILLE     CLEAR     34  34 100 NW7       29.74R WCI  28
$$

WIZ051-052-058>065-066-070>072-190200-
SOUTHEAST WISCONSIN

CITY           SKY/WX    TMP DP  RH WIND       PRES   REMARKS
MILWAUKEE      CLOUDY    39  29  67 NW14      29.69R WCI  31
WAUKESHA       CLOUDY    36  28  75 NW9G21    29.71R WCI  29
MILWAUKEE/TIMM CLOUDY    37  25  60 N20G33    29.70R WCI  27
RACINE         CLOUDY    38  29  70 NW17G30   29.71R WCI  28
BURLINGTON     CLOUDY    39  34  84 N20G28    29.72R WCI  29
KENOSHA        CLOUDY    39  29  67 NW12G24   29.69R WCI  32
FOND DU LAC    CLOUDY    37  26  64 N16G25    29.71R WCI  28
SHEBOYGAN      CLOUDY    36  29  75 NW14G24   29.68R WCI  27
WEST BEND      CLOUDY    36  30  80 NW14G20   29.69R WCI  27
JUNEAU         CLOUDY    35  28  76 NW12G21   29.73R WCI  26
$$

LSZ147-162-190200-
LAKE SUPERIOR

STATION/POSITION TIME  TEMP    WIND        PRES    WAVE
                       AIR SEA DIR/SP/G            HT/PER
                 (UTC) (F)     (DEG/KT/KT) (MB)    (FT/S)
DEVILS ISLAND    0100   27     310/ 20/ 26 1012.5R
SAXON HARBOR     0040   30     310/ 17/ 21 1011.2R
$$

LMZ867-665-643>646-190200-
LAKE MICHIGAN

STATION/POSITION TIME  TEMP    WIND        PRES    WAVE
                       AIR SEA DIR/SP/G            HT/PER
                 (UTC) (F)     (DEG/KT/KT) (MB)    (FT/S)
N MID LAKE BUOY  0050   38 48  330/ 25/ 33 1003.4R   5/ 5
NORTHPORT PIER   0104   36     330/ 23     1004.4
SHEBOYGAN LAKESH 0100   37     330/ 13/ 15 1005.6R
PORT WASHINGTON  0030   38     330/ 11/ 20 1006.1R
MILWAUKEE LAKESH 0050   39     340/ 13/ 16   N/A
S MID LAKE BUOY  0050   42 49  350/ 29/ 35 1002.8R  10/ 8
KENOSHA   LAKESH 0100   39     330/ 15/ 25 1005.8
$$

TC  - TEMPERATURE IN CELSIUS
VSB - VISIBILITY IN STATUTE MILES
WCI - WIND CHILL INDEX
HX  - HEAT INDEX





USA.gov is the U.S. government's official web portal to all federal, state and local government web resources and services.